This demonstration page uses our WeatherBlox Daily Observations layout. Learn more.

Hourly Observations for November 29, 2015

Temp ( °F °C ) Dew Point ( °F °C ) Humidity (%) Winds ( mph kmh ) Pressure ( in mb ) Visibility ( mi km ) Precip ( " mm )
12:15 am 00:15 Cloudy 27 -2.9 19 -7.2 73 73 Calm 30.45 1031 10 16.0934 0 0
12:35 am 00:35 Cloudy 27 -3 19 -7.3 73 73 E 3 6 30.42 1030 10 16.0934 0 0
12:55 am 00:55 Cloudy 27 -3 19 -7.5 71 71 Calm 30.42 1030 10 16.0934 0 0
1:15 am 01:15 Cloudy 27 -3 19 -7.5 71 71 ENE 3 6 30.42 1030 10 16.0934 0 0
1:35 am 01:35 Cloudy 27 -3 20 -6.9 75 75 Calm 30.42 1030 10 16.0934 0 0
1:55 am 01:55 Cloudy 26 -3.1 19 -7.3 73 73 ENE 3 6 30.42 1030 10 16.0934 0 0
2:15 am 02:15 Cloudy 26 -3.1 19 -7.2 74 74 E 5 7 30.39 1029 10 16.0934 0 0
2:35 am 02:35 Cloudy 26 -3.2 19 -7 75 75 ENE 3 6 30.39 1029 10 16.0934 0 0
2:55 am 02:55 Cloudy 26 -3.1 19 -7.1 74 74 E 5 7 30.39 1029 10 16.0934 0 0
3:15 am 03:15 Cloudy 26 -3.1 19 -7.5 72 72 Calm 30.39 1029 10 16.0934 0 0
3:35 am 03:35 Cloudy 26 -3.2 19 -7.5 72 72 ENE 3 6 30.39 1029 10 16.0934 0 0
3:55 am 03:55 Cloudy 26 -3.2 19 -7.2 74 74 E 3 6 30.39 1029 10 16.0934 0 0
4:15 am 04:15 Cloudy 26 -3.2 19 -7.5 72 72 E 3 6 30.36 1028 10 16.0934 0 0
4:35 am 04:35 Cloudy 26 -3.3 18 -7.6 72 72 Calm 30.39 1029 10 16.0934 0 0
4:55 am 04:55 Cloudy 26 -3.3 18 -7.8 71 71 Calm 30.36 1028 10 16.0934 0 0
5:15 am 05:15 Cloudy 26 -3.3 18 -7.7 72 72 Calm 30.36 1028 10 16.0934 0 0
5:35 am 05:35 Cloudy 26 -3.3 19 -7.3 74 74 Calm 30.36 1028 10 16.0934 0 0
5:55 am 05:55 Cloudy 26 -3.3 19 -7.5 73 73 NNE 3 6 30.36 1028 10 16.0934 0 0
6:15 am 06:15 Cloudy 26 -3.3 19 -7.5 73 73 NE 3 6 30.36 1028 10 16.0934 0 0
6:35 am 06:35 Cloudy 26 -3.3 18 -7.9 71 71 NE 3 6 30.36 1028 10 16.0934 0 0
6:55 am 06:55 Cloudy 26 -3.3 19 -7 76 76 ENE 5 7 30.36 1028 10 16.0934 0 0
7:15 am 07:15 Cloudy 26 -3.3 19 -7.2 75 75 E 5 7 30.36 1028 10 16.0934 0 0
7:35 am 07:35 Cloudy 26 -3.3 19 -7.4 74 74 Calm 30.36 1028 10 16.0934 0 0
7:55 am 07:55 Cloudy 26 -3.3 19 -7.4 74 74 ESE 3 6 30.36 1028 10 16.0934 0 0
8:15 am 08:15 Cloudy 26 -3.3 19 -7.1 75 75 ESE 3 6 30.36 1028 10 16.0934 0 0
8:35 am 08:35 Cloudy 26 -3.5 19 -7.1 76 76 Calm 30.36 1028 10 16.0934 0 0
8:55 am 08:55 Cloudy 25 -3.7 20 -6.9 79 79 Calm 30.36 1028 7 11.26538 0 0
9:15 am 09:15 Cloudy with Haze 25 -3.7 20 -6.4 82 82 Calm 30.39 1029 5 8.0467 0 0
9:35 am 09:35 Cloudy with Mist and Fog 25 -3.8 21 -6 85 85 Calm 30.36 1028 5 8.0467 0 0
9:55 am 09:55 Cloudy with Mist and Fog 25 -3.7 22 -5.5 87 87 Calm 30.36 1028 4 6.43736 0 0
10:15 am 10:15 Cloudy 26 -3.6 22 -5.6 86 86 Calm 30.36 1028 7 11.26538 0 0
10:35 am 10:35 Cloudy 26 -3.5 22 -5.5 86 86 Calm 30.36 1028 10 16.0934 0 0
10:55 am 10:55 Cloudy with Mist and Fog 26 -3.5 22 -5.5 86 86 Calm 30.36 1028 5 8.0467 0 0
11:15 am 11:15 Cloudy with Mist and Fog 26 -3.3 23 -5.2 87 87 Calm 30.36 1028 4 6.43736 0 0
11:35 am 11:35 Cloudy with Light Snow 27 -3 24 -4.6 89 89 Calm 30.36 1028 1.25 2.011675 0 0
11:55 am 11:55 Cloudy with Light Snow 27 -2.9 24 -4.3 90 90 Calm 30.36 1028 1.25 2.011675 0 0
12:15 pm 12:15 Cloudy with Light Snow 27 -2.8 24 -4.3 90 90 Calm 30.36 1028 2 3.21868 0 0
12:35 pm 12:35 Cloudy with Light Snow 27 -2.7 24 -4.2 90 90 Calm 30.33 1027 3 4.82802 0 0
12:55 pm 12:55 Cloudy with Light Snow 27 -2.6 25 -4.1 90 90 NNE 3 6 30.33 1027 4 6.43736 0 0
1:15 pm 13:15 Cloudy with Mist and Fog 27 -2.6 25 -4 90 90 N 3 6 30.33 1027 5 8.0467 0 0
1:35 pm 13:35 Cloudy with Mist and Fog 27 -2.6 25 -4 90 90 Calm 30.3 1026 5 8.0467 0 0
1:55 pm 13:55 Cloudy 28 -2.4 25 -3.8 90 90 NNE 3 6 30.27 1025 7 11.26538 0 0
2:15 pm 14:15 Cloudy with Mist and Fog 28 -2.5 25 -3.7 92 92 NNE 3 6 30.27 1025 5 8.0467 0 0
2:35 pm 14:35 Cloudy with Mist and Fog 28 -2.5 25 -3.8 91 91 ENE 3 6 30.24 1024 5 8.0467 0 0
2:55 pm 14:55 Cloudy 28 -2.2 26 -3.6 90 90 E 3 6 30.24 1024 10 16.0934 0 0
3:15 pm 15:15 Cloudy 28 -2.2 26 -3.6 90 90 E 3 6 30.24 1024 10 16.0934 0 0
3:35 pm 15:35 Cloudy with Mist and Fog 28 -2.1 26 -3.3 92 92 E 5 7 30.24 1024 5 8.0467 0 0
3:55 pm 15:55 Cloudy with Mist and Fog 28 -2.1 26 -3.1 93 93 ESE 5 7 30.24 1024 3 4.82802 0 0
4:15 pm 16:15 Cloudy with Mist and Fog 28 -2.1 26 -3.1 93 93 E 5 7 30.24 1024 2.5 4.02335 0 0
4:35 pm 16:35 Cloudy with Mist and Fog 28 -2 27 -2.9 94 94 ESE 5 7 30.24 1024 2.5 4.02335 0 0
4:55 pm 16:55 Cloudy with Mist and Fog 28 -2 27 -2.8 94 94 ESE 5 7 30.24 1024 2 3.21868 0 0
5:15 pm 17:15 Cloudy with Mist and Fog 28 -2.1 27 -3 94 94 E 3 6 30.24 1024 4 6.43736 0 0
5:35 pm 17:35 Cloudy with Light Snow 28 -2.1 27 -2.9 94 94 Calm 30.24 1024 4 6.43736 0 0
5:55 pm 17:55 Cloudy with Light Snow 28 -2.1 27 -2.8 95 95 Calm 30.24 1024 2.5 4.02335 0 0
6:15 pm 18:15 Cloudy with Light Snow 28 -2.1 27 -2.8 95 95 Calm 30.24 1024 1.75 2.816345 0 0
6:35 pm 18:35 Cloudy with Light Snow 28 -2.1 27 -2.8 95 95 Calm 30.24 1024 3 4.82802 0 0
6:55 pm 18:55 Cloudy with Light Snow 28 -2 27 -2.7 95 95 Calm 30.24 1024 4 6.43736 0 0
7:15 pm 19:15 Cloudy with Light Snow 28 -2 27 -2.7 95 95 Calm 30.24 1024 3 4.82802 0 0
7:35 pm 19:35 Cloudy with Light Snow 28 -2 27 -2.8 94 94 Calm 30.24 1024 4 6.43736 0 0
7:55 pm 19:55 Cloudy with Light Snow 28 -2.1 27 -2.8 95 95 Calm 30.24 1024 2 3.21868 0 0
8:15 pm 20:15 Cloudy with Light Snow 28 -2 27 -2.7 95 95 Calm 30.24 1024 4 6.43736 0 0
8:35 pm 20:35 Cloudy with Light Snow 28 -2 27 -2.7 95 95 Calm 30.24 1024 2 3.21868 0 0
8:55 pm 20:55 Cloudy with Light Snow 28 -2 27 -2.7 95 95 E 3 6 30.24 1024 2 3.21868 0 0
9:15 pm 21:15 Cloudy with Light Snow 28 -2.1 27 -2.8 95 95 Calm 30.24 1024 2.5 4.02335 0 0
9:35 pm 21:35 Cloudy with Light Snow 28 -2.1 27 -2.8 95 95 Calm 30.24 1024 3 4.82802 0 0
9:55 pm 21:55 Cloudy with Light Snow 28 -2.1 27 -2.8 95 95 Calm 30.24 1024 3 4.82802 0 0
10:15 pm 22:15 Cloudy with Light Snow 28 -2.1 27 -2.8 95 95 E 3 6 30.21 1023 3 4.82802 0 0
10:35 pm 22:35 Cloudy with Light Snow 28 -2 27 -2.6 96 96 E 3 6 30.21 1023 5 8.0467 0 0
10:55 pm 22:55 Cloudy 28 -2.1 27 -2.7 96 96 Calm 30.21 1023 7 11.26538 0 0
11:15 pm 23:15 Cloudy 28 -2.1 27 -2.7 96 96 Calm 30.21 1023 7 11.26538 0 0
11:35 pm 23:35 Cloudy with Mist and Fog 28 -2.1 27 -2.7 96 96 Calm 30.21 1023 3 4.82802 0 0
11:55 pm 23:55 Cloudy with Mist and Fog 28 -2 27 -2.6 96 96 Calm 30.21 1023 1.75 2.816345 0 0

Powered by AerisWeather